Flag for Botswana Weather past 2 weeks in Molepolole, Botswana

Now
41 °F

Clear.


Feels Like: 36 °F
Forecast: 38 / 75 °F
Wind: 8 mph from Southeast

Location: Seretse Khama International Airport

Current Time: Aug 3, 2015 at 5:14:46 AM

Latest Report: Aug 3, 2015 at 4:00 AM


Visibility: 10 mi

Pressure: 30.39 "Hg (26.40 "Hg at 1145m altitude)

Humidity: 57%

Dew point: 27 °F

Location of MolepololeLocation

Historic Weather in Molepolole — Graph

°F

Molepolole temperature yesterday

Maximum temperature yesterday: 70 °F (at 3:00 PM)
Minimum temperature yesterday: 37 °F (at 2:00 AM)
Average temperature yesterday: 53 °F

Past Weeks' High & Low Weather Summary

 TemperatureHumidityPressure
High84 °F (Jul 29, 3:00 PM)100% (Jul 25, 10:00 PM)30.51 "Hg (Jul 25, 10:00 PM)
Low30 °F (Aug 1, 7:00 AM)5% (Jul 30, 2:00 PM)29.98 "Hg (Jul 24, 2:00 PM)
Average57 °F35%30.22 "Hg
* Reported Jul 19 4:00 AM — Aug 3 4:00 AM, Molepolole, Weather by CustomWeather, © 2015

Note: Actual official high and low records may vary slightly from our data, if they occured in-between our weather recording intervals... More about our weather records

Advertising

Molepolole weather history for previous 24 hours

 ConditionsComfort  
Time TempWeatherWind HumidityBarometerVisibility
4:00 AM
Mon, Aug 3
41 °FClear.8 mph57%30.39 "Hg10 mi
3:00 AM43 °FClear.8 mph53%30.39 "Hg10 mi
1:00 AM46 °FClear.9 mph43%30.39 "Hg10 mi
12:00 AM46 °FClear.5 mph43%30.39 "Hg10 mi
11:00 PM
Sun, Aug 2
48 °FClear.No wind37%30.39 "Hg10 mi
10:00 PM54 °FClear.3 mph33%30.39 "Hg10 mi
9:00 PM57 °FPassing clouds.5 mph29%30.39 "HgN/A
8:00 PM59 °FClear.8 mph27%30.39 "Hg10 mi
7:00 PM61 °FClear.6 mph25%30.36 "Hg10 mi
6:00 PM64 °FClear.8 mph22%30.36 "Hg10 mi
5:00 PM68 °FPassing clouds.8 mph21%30.36 "HgN/A
4:00 PM68 °FPassing clouds.10 mph21%30.36 "HgN/A
3:00 PM70 °FPassing clouds.6 mph21%30.36 "HgN/A
2:00 PM68 °FPassing clouds.9 mph23%30.39 "HgN/A
1:00 PM64 °FPassing clouds.12 mph30%30.45 "HgN/A
12:00 PM63 °FPassing clouds.12 mph32%30.48 "HgN/A
11:00 AM59 °FPassing clouds.10 mph39%30.51 "HgN/A
10:00 AM57 °FPassing clouds.7 mph44%30.51 "HgN/A
9:00 AM52 °FPassing clouds.6 mph50%30.48 "HgN/A
8:00 AM45 °FSunny.6 mph49%30.48 "Hg10 mi
7:00 AM39 °FSunny.7 mph48%30.45 "Hg10 mi
6:00 AM39 °FPassing clouds.3 mph45%30.42 "HgN/A
5:00 AM41 °FClear.9 mph39%30.42 "Hg10 mi
Weather by CustomWeather, © 2015

See weather overviewHow to use our weather pages